Home   Weather   Kaunas   Past weeks

Flag for Lithuania Past Weather in Kaunas, Lithuania — Yesterday and Last 2 Weeks

Now
30 °F

Overcast.


Feels Like: 22 °F
Forecast: 36 / 40 °F
Wind: 9 mph from Northwest

Location: Kaunas

Current Time: Feb 22, 2017 at 3:38:24 am

Latest Report: Feb 22, 2017 at 3:20 am


Visibility: N/A

Pressure: 29.56 "Hg

Humidity: 80%

Dew Point: 25 °F

Location of KaunasLocation

Past Weather in Kaunas — Graph

°F

Kaunas Temperature Yesterday

Maximum temperature yesterday: 43 °F (at 4:20 am)
Minimum temperature yesterday: 34 °F (at 11:50 pm)
Average temperature yesterday: 40 °F

High & Low Weather Summary for the Past Weeks

 TemperatureHumidityPressure
High43 °F (Feb 21, 4:20 am)93% (Feb 15, 1:20 am)30.80 "Hg (Feb 15, 1:20 am)
Low7 °F (Feb 8, 1:50 am)36% (Feb 9, 12:50 pm)29.12 "Hg (Feb 21, 5:20 am)
Average28 °F76%30.33 "Hg
* Reported Feb 7 2:20 am — Feb 22 2:20 am, Kaunas, Weather by CustomWeather, © 2017

Note: Actual official high and low records may vary slightly from our data, if they occured in-between our weather recording intervals... More about our weather records

Advertising

Kaunas Weather History for the Previous 24 Hours

Scroll right to see more
 ConditionsComfort  
Time TempWeatherWind HumidityBarometerVisibility
2:20 am
Wed, Feb 22
30 °FOvercast.10 mph80%29.53 "HgN/A
1:50 am32 °FOvercast.9 mph80%29.50 "HgN/A
1:20 am32 °FLow clouds.12 mph87%29.47 "HgN/A
12:50 am34 °FSnow flurries. Low clouds.9 mph81%29.47 "HgN/A
12:20 am34 °FSprinkles. Low clouds.9 mph81%29.42 "Hg6 mi
11:50 pm
Tue, Feb 21
34 °FDrizzle. Low clouds.9 mph87%29.39 "Hg4 mi
11:20 pm36 °FDrizzle. Overcast.9 mph87%29.36 "HgN/A
10:50 pm36 °FMostly cloudy.10 mph87%29.36 "HgN/A
10:20 pm37 °FLight rain. Overcast.12 mph81%29.33 "HgN/A
9:50 pm37 °FOvercast.14 mph81%29.33 "HgN/A
9:20 pm37 °FOvercast.13 mph87%29.30 "HgN/A
8:50 pm37 °FMostly cloudy.14 mph81%29.30 "HgN/A
8:20 pm37 °FPartly cloudy.15 mph87%29.30 "HgN/A
7:50 pm37 °FMostly cloudy.14 mph87%29.30 "HgN/A
7:20 pm37 °FOvercast.14 mph87%29.30 "HgN/A
6:50 pm39 °FOvercast.15 mph81%29.27 "HgN/A
6:20 pm37 °FOvercast.16 mph87%29.27 "HgN/A
5:50 pm37 °FOvercast.16 mph87%29.27 "HgN/A
5:20 pm39 °FOvercast.16 mph81%29.27 "HgN/A
4:50 pm39 °FOvercast.21 mph81%29.24 "HgN/A
4:20 pm39 °FLow clouds.17 mph81%29.24 "HgN/A
3:50 pm39 °FLow clouds.20 mph87%29.24 "HgN/A
3:20 pm39 °FOvercast.18 mph87%29.24 "HgN/A
2:50 pm39 °FDrizzle. Low clouds.20 mph87%29.24 "HgN/A
2:20 pm39 °FDrizzle. Mostly cloudy.18 mph87%29.24 "Hg6 mi
1:50 pm39 °FLight rain. Low clouds.17 mph87%29.24 "Hg6 mi
1:20 pm41 °FDrizzle. Mostly cloudy.18 mph87%29.24 "Hg4 mi
12:50 pm41 °FDrizzle. Low clouds.17 mph87%29.21 "Hg4 mi
12:20 pm41 °FMostly cloudy.17 mph87%29.21 "HgN/A
11:50 am41 °FDrizzle. Low clouds.20 mph87%29.21 "Hg6 mi
11:20 am41 °FLight rain. Fog.17 mph87%29.21 "Hg3 mi
10:50 am41 °FLow clouds.17 mph87%29.21 "HgN/A
10:20 am41 °FLow clouds.20 mph87%29.18 "HgN/A
9:50 am41 °FDrizzle. Mostly cloudy.20 mph87%29.18 "HgN/A
9:20 am41 °FDrizzle. Low clouds.17 mph87%29.18 "Hg4 mi
8:50 am41 °FDrizzle. Low clouds.18 mph87%29.15 "HgN/A
8:20 am41 °FDrizzle. Low clouds.20 mph87%29.15 "Hg6 mi
7:50 am41 °FDrizzle. Low clouds.20 mph87%29.15 "Hg4 mi
7:20 am41 °FDrizzle. Low clouds.18 mph87%29.15 "Hg4 mi
6:50 am41 °FLight rain. Fog.20 mph93%29.12 "Hg2 mi
6:20 am41 °FLight rain. Low clouds.18 mph93%29.12 "HgN/A
5:50 am43 °FLight rain. Low clouds.18 mph87%29.12 "Hg5 mi
5:20 am43 °FLight rain. Low clouds.14 mph87%29.12 "HgN/A
4:50 am43 °FLight rain. Low clouds.16 mph87%29.15 "Hg4 mi
4:20 am43 °FLight rain. Low clouds.15 mph87%29.15 "Hg4 mi
3:50 am41 °FLight rain. Low clouds.15 mph93%29.15 "Hg6 mi
3:20 am41 °FDrizzle. Low clouds.13 mph93%29.18 "HgN/A
Weather by CustomWeather, © 2017

See weather overviewHow to use our weather pages